sat.trackr.live / text

‹ back to catalog

STARLINK-33642

NORAD 63978 · 2025-099AC

PAYLOAD ACTIVE UNKNOWN

§ Identity

Operator
Country
US
Launch date
2025-05-13
Launch site
AFETR
Launch vehicle
Mass (kg)
RCS (m²)

Purposes: comms

External: N2YO · Heavens-Above · Gunter

§ Orbital elements

Epoch: 2026-09-20T01:28:31.468512Z

Period
94.27 min
Inclination
43.0003°
Eccentricity
0.0001933
Mean motion
15.27605211 rev/d
Perigee alt
481.6 km
Apogee alt
484.3 km
Semi-major
6,861.1 km
B*
3.8805e-4
RAAN
154.9755°
Arg perigee
271.2701°
Mean anomaly
88.7929°
Rev number
7,701

§ Raw data

STARLINK-336421 63978U 25099AC  26263.06147533  .00010439  00000+0  38805-3 0  99992 63978  43.0003 154.9755 0001933 271.2701  88.7929 15.27605211 77015

JSON: /api/v1/satellites/63978 · /tle

For live sub-satellite position, see the globe view (requires WebGL).

§ Visibility from observer

Set your observer location to see the next 7 days of passes ≥ 10°. The values pass through the URL so the page stays shareable.

No JS? Fill the form by hand. The geolocation button needs JavaScript.